THORAD AGENA D DEB, 4650

Orbit data source: Space-Track

THORAD AGENA D DEB, 4650 is space debris in SSO originally from a launch on Wed, 08 Apr 1970 UTC launched from the Air Force Western Test Range (AFWTR). Debris objects in space refer to the collection of defunct objects orbiting the Earth. Examples of debris include non-operational satellites, rocket bodies, and fragments generated from explosions, collisions, or faulty payload assembly.

Loading next visibility...
Identifier
4650, 1970-025AJ
Orbit
SSO
Country
Flag of USUS
Related business
Manufacturer
Unknown
Mission
Spacecraft
Bus & Motor
Unknown
Mass
Unknown
Launch date (UTC)
1970-04-08 (56 years ago)
Launch vehicle
Unknown
Launch site
Air Force Western Test Range (AFWTR)
Object type
Payload
Rocket body
Debris
Shape & HBR
Unknown shape, 0.2 m
Radar Cross Section
Small (<0.1 m²)

Expand to show TLE details & history
Last TLE update: 7 hours ago

TLE from 7 hours ago
0 THORAD AGENA D DEB
1  4650U 70025AJ  26036.79834200  .00001498  00000-0  81309-3 0  9995
2  4650  99.8298 151.9741 0114519  93.2271 268.2006 14.10827096839164
Epoch: 2026-02-05T19:09Z
TLE epoch observation values (Epoch: 2026-02-05T19:09:36.748Z)
Latitude
-0.00004°
Longitude
88.62559°
Altitude
862.957 km
Speed
7.419 km/s
True Right ascension
10h 07m 53s
True Declination
0° 00' 00"
Sunlit
Object was in full shadow at epoch
Visualization orbit readout
Latitude
Unknown
Longitude
Unknown
Altitude
Unknown
Speed
Unknown
Apparent Right ascension
Unknown
Apparent Declination
Unknown
Sunlit
N/A
Visualization observer readout
Local Sidereal Time
04:20:25
Azimuth
Unknown
Elevation
Unknown
Doppler factor
Unknown
Orbital elements
Apogee altitude
936.589 km
Perigee altitude
770.951 km
Semi-major axis
7,231.907 km
Eccentricity
0.01145
Inclination
99.8298°
RAAN
151.9741°
Arg. of periapsis
93.2271°
True anomaly
266.88966°
Mean anomaly
268.2006°
Eccentric anomaly
267.54506°
Mean motion
3.5291 °/min
Orbital period
102.01 mins
BSTAR
0.00081309
Loading maneuver chart data...
Computing Atmospheric mass density...

Documentation

Showing up to 5 results
|